Location: Austin
(30.3000°N, 97.7500°W)
Time: 11:53:46
(UTC-05:00)

Cosmos 2322 Rocket - Pass Details

Date: 26 May 2023
Orbit: 831 x 852 km, 71.0° (Epoch: 30 May)

Event Time Altitude Azimuth Distance (km) Brightness Sun altitude
Rises 20:40:38 0° 210° (SSW) 3,394 5.4 -3.9°
Reaches altitude 10° 20:43:08 10° 215° (SW) 2,464 4.7 -4.4°
Maximum altitude 20:48:39 54° 292° (WNW) 1,024 3.2 -5.4°
Drops below altitude 10° 20:54:14 10° 9° (N) 2,481 4.9 -6.5°
Sets 20:56:45 0° 14° (NNE) 3,420 5.6 -6.9°
